Wind_Speed
24 26 27 28 30 32 33 33 32 32 31 31 30 30 29 28 28 27 26 25 24 23 22 22 23 24 24 24 23 21 20 19 18 16 15 13 12 11 10 9 10 11 15
24 26 27 28 30 32 34 35 36 36 36 36 35 34 33 32 32 32 31 30 29 28 27 26 25 25 26 26 26 24 24 23 22 20 18 16 16 15 13 11 10 10 10
23 24 26 27 29 31 32 34 35 35 36 38 38 39 38 38 37 36 36 35 34 33 32 31 29 28 28 28 29 28 28 27 27 24 22 20 19 19 17 15 14 13 12
17 19 20 22 24 25 27 28 30 31 33 35 36 37 38 39 40 40 40 39 38 38 36 35 34 32 32 32 32 32 32 31 31 29 26 24 23 22 22 20 19 18 16
17 18 20 21 22 24 25 27 28 30 32 34 35 36 38 39 39 40 41 42 41 41 40 39 38 37 36 36 36 36 36 35 35 33 31 28 27 27 25 24 23 22 19
19 20 21 23 24 26 28 29 31 33 34 36 37 38 40 41 41 41 41 42 43 43 43 42 41 40 39 39 39 39 40 40 39 37 35 33 32 32 30 27 26 25 23
20 21 23 25 26 28 30 32 34 36 37 38 40 41 43 44 45 46 45 45 45 45 46 45 44 43 42 42 42 42 42 43 42 41 39 38 36 36 34 31 29 28 26
23 25 27 29 31 33 35 36 38 40 41 42 43 44 45 46 47 48 49 50 50 50 48 48 48 47 45 44 44 44 44 45 44 44 44 43 41 40 38 35 32 32 29
28 31 33 35 38 40 42 44 45 46 47 47 48 49 49 50 51 51 52 52 52 53 53 52 51 51 50 48 47 47 47 47 45 46 47 47 45 43 42 38 36 35 33
35 38 40 43 46 48 50 52 53 54 55 55 55 55 55 55 55 56 56 56 56 56 55 55 55 55 54 53 52 50 49 49 47 47 48 49 48 46 45 42 39 38 36
42 45 48 51 54 57 59 61 62 64 64 65 65 65 64 63 62 62 62 61 61 60 59 59 58 57 57 56 56 55 53 51 50 50 50 49 49 47 46 46 43 40 39
49 52 55 58 61 64 66 68 70 70 71 72 73 73 72 70 69 69 68 68 67 65 64 62 62 61 60 58 58 59 58 56 54 53 53 52 51 49 47 47 46 43 42
55 58 62 65 67 70 72 74 76 76 77 76 76 76 76 74 71 70 70 71 72 72 70 68 66 66 64 62 60 60 61 61 60 59 58 56 53 52 51 49 46 44 44
59 63 67 70 73 75 77 78 80 82 82 81 81 81 80 78 74 72 70 71 72 74 75 75 72 71 69 67 65 62 61 62 64 65 64 61 57 55 54 52 48 47 48
63 67 71 74 77 79 80 81 83 84 85 85 87 88 87 84 82 79 76 74 74 74 75 77 78 77 74 73 70 67 65 63 63 65 67 66 62 59 58 55 53 52 52
69 73 77 79 80 81 83 86 87 87 87 88 89 88 87 86 86 86 84 82 80 78 78 78 79 80 79 77 75 73 70 68 65 65 68 69 66 64 62 59 57 56 55
74 77 80 82 83 86 89 90 90 90 90 87 82 79 76 75 75 78 79 80 80 79 78 80 82 82 83 82 80 78 75 73 70 66 65 68 67 65 64 62 61 58 57
77 80 82 85 88 90 90 89 88 85 79 72 65 61 59 58 58 59 62 65 69 72 73 75 80 84 85 85 84 82 80 78 76 74 68 65 65 64 64 63 62 60 58
78 81 85 88 89 90 87 83 77 70 63 58 55 56 57 57 56 56 56 57 59 62 64 67 72 81 86 88 87 86 84 83 80 78 76 72 67 63 63 63 63 62 60
81 85 88 88 88 84 77 70 65 61 59 58 58 59 60 61 61 60 59 57 57 56 55 56 62 72 83 89 90 89 86 85 83 80 79 77 73 68 64 63 63 63 62
85 87 87 86 82 76 72 68 66 64 64 64 65 65 65 65 64 62 60 58 58 57 55 54 53 57 71 85 90 91 89 87 86 85 82 79 76 73 68 65 64 64 63
85 86 85 81 77 75 73 72 70 68 66 65 64 63 63 63 63 62 62 60 59 59 58 56 53 50 54 69 84 92 93 89 88 86 85 82 80 77 74 69 66 66 65
84 83 81 79 78 75 70 65 60 55 52 51 50 50 50 50 51 53 56 58 59 58 59 59 56 52 49 53 67 85 94 94 90 87 86 84 83 82 78 75 71 68 67
84 82 81 79 74 66 60 56 53 51 50 49 48 48 47 46 45 45 46 48 52 54 56 60 60 55 52 49 52 67 86 95 94 90 87 85 83 82 80 78 75 72 70
82 81 79 72 64 59 56 54 53 53 55 55 53 51 48 47 45 44 44 44 44 47 51 56 60 58 54 51 48 52 70 89 96 93 88 87 85 82 79 77 75 74 72
82 80 72 65 60 57 56 55 56 57 58 57 55 52 49 47 46 46 44 44 44 43 46 51 56 58 55 52 49 47 55 75 93 97 93 88 86 81 77 72 71 73 72
Wind_Direction
265 265 266 267 266 263 260 258 258 259 260 260 262 264 265 265 265 264 263 262 262 263 262 258 251 246 244 241 240 239 236 234 233 236 237 234 229 226 223 225 233 235 232
271 272 273 271 271 270 269 267 267 266 265 265 264 264 265 265 265 265 264 262 261 261 261 261 258 252 247 242 239 238 234 233 234 236 237 237 236 234 231 229 233 239 238
281 282 280 278 278 278 276 275 274 274 274 272 271 269 268 266 264 263 263 263 262 261 260 259 258 256 252 247 242 240 236 233 235 236 236 238 239 238 238 238 237 238 239
298 296 294 293 292 290 287 283 281 279 278 277 275 274 272 269 267 265 263 261 260 260 259 257 256 254 251 247 244 242 239 236 236 236 237 237 238 241 243 245 244 240 238
310 309 306 302 299 296 293 289 286 284 281 279 277 276 275 272 269 267 265 263 260 257 256 255 254 252 249 246 244 243 241 238 237 236 237 236 237 240 243 246 247 246 243
314 309 303 299 296 293 290 287 285 283 281 280 278 277 275 274 272 269 266 264 263 259 255 253 253 252 250 247 245 243 242 240 238 236 236 236 236 239 241 243 246 249 246
315 312 308 304 301 298 296 293 290 287 285 282 280 277 276 274 273 271 268 266 264 263 262 258 255 253 252 250 247 245 243 242 240 238 237 237 235 236 238 239 243 248 249
315 313 311 309 307 304 301 299 296 293 291 288 286 284 281 278 276 273 271 269 266 264 263 262 260 256 253 251 250 247 245 243 242 240 239 238 237 236 237 237 240 244 247
320 318 316 313 310 308 305 303 300 297 294 291 288 286 284 282 280 278 275 272 269 265 262 260 260 259 256 252 250 249 247 244 242 241 240 240 239 237 236 236 238 241 244
318 316 314 312 310 307 305 303 300 297 294 291 288 285 282 281 279 277 276 274 271 268 265 261 258 256 256 253 250 248 247 245 241 239 240 241 241 239 237 235 237 239 242
315 313 312 311 309 307 305 303 301 299 296 293 290 287 284 281 278 275 273 271 270 269 266 263 260 257 254 252 251 249 246 244 242 238 238 239 239 238 238 237 235 239 241
314 313 311 309 307 305 303 302 300 298 295 293 290 288 285 282 279 276 272 269 267 266 265 264 262 259 256 252 249 248 247 244 242 240 237 237 236 235 235 237 234 236 240
314 312 310 308 306 304 303 302 300 298 295 293 290 287 285 282 279 276 273 269 265 263 262 261 261 259 257 254 250 247 246 245 243 241 238 236 235 234 233 236 234 234 238
313 311 309 308 306 305 304 302 300 298 296 293 291 288 286 283 279 276 272 269 265 261 259 257 257 257 256 255 252 248 245 244 243 242 240 237 234 233 233 234 235 235 236
312 310 310 309 308 306 304 302 300 298 296 293 291 289 287 285 281 277 272 268 265 262 258 255 253 253 253 252 251 248 246 244 243 242 241 239 235 234 233 233 234 235 236
312 312 311 311 309 307 305 303 302 299 296 293 290 288 285 282 278 276 273 269 265 260 256 253 250 249 249 249 248 247 245 243 243 242 240 239 235 234 233 233 232 234 235
312 312 312 311 309 308 307 305 302 299 297 295 292 288 284 280 277 274 273 271 269 265 258 252 248 246 245 245 244 244 243 241 241 240 240 238 235 232 233 233 232 233 235
314 313 312 311 311 310 308 305 303 301 300 297 292 286 281 278 277 276 274 273 271 269 264 257 249 244 242 242 240 240 240 239 238 238 238 238 236 232 231 232 231 232 234
317 316 315 315 314 312 309 308 307 306 303 297 289 284 282 281 280 279 277 275 273 270 266 260 251 244 240 239 238 237 237 237 237 237 238 238 236 233 231 230 230 230 232
320 319 319 318 316 313 312 311 309 306 301 296 291 286 284 283 282 280 277 274 272 269 267 263 255 244 239 236 236 235 234 235 236 235 236 237 236 233 230 229 230 229 229
322 322 321 318 316 315 314 311 307 303 299 295 292 289 287 284 282 279 276 273 270 266 263 262 260 252 242 236 234 233 232 231 232 233 233 233 234 233 230 229 229 229 229
324 323 321 319 318 317 315 312 309 306 303 300 298 295 292 288 284 280 275 271 268 263 258 257 258 256 251 243 237 233 231 229 229 230 231 231 231 232 231 228 228 228 228
325 324 323 322 321 319 318 317 316 316 314 311 308 305 301 297 292 285 279 273 268 263 255 251 253 255 254 251 244 236 231 228 227 227 229 230 230 230 230 228 227 227 227
326 326 325 324 324 323 324 324 324 323 321 318 315 311 308 305 300 293 287 279 270 264 256 249 248 252 253 252 251 244 235 229 226 224 226 227 228 229 230 230 228 226 226
327 327 327 327 326 326 326 326 326 325 323 321 318 314 310 306 303 298 292 286 277 267 258 251 247 248 251 250 251 251 243 234 227 223 222 224 225 226 228 229 229 227 226
328 329 330 329 327 327 328 327 326 325 323 321 318 315 311 307 303 299 294 288 282 273 262 253 247 246 247 249 249 253 250 240 231 225 220 221 223 222 224 225 227 227 227
Height
5869 5868 5868 5867 5866 5866 5865 5865 5865 5865 5864 5863 5863 5863 5863 5863 5862 5862 5862 5862 5862 5862 5862 5863 5863 5863 5864 5864 5864 5865 5865 5866 5866 5867 5868 5869 5871 5872 5874 5875 5876 5876 5878
5865 5864 5863 5862 5861 5861 5861 5861 5860 5860 5859 5858 5858 5857 5856 5856 5856 5857 5857 5857 5857 5857 5857 5858 5858 5858 5859 5859 5860 5861 5862 5862 5863 5864 5865 5866 5868 5870 5871 5872 5874 5875 5876
5862 5861 5860 5859 5858 5858 5857 5856 5855 5854 5854 5853 5852 5851 5851 5850 5849 5849 5850 5850 5850 5851 5851 5852 5852 5853 5853 5854 5855 5856 5857 5858 5860 5860 5861 5862 5863 5865 5868 5869 5871 5873 5874
5860 5859 5858 5857 5856 5855 5853 5852 5851 5849 5848 5846 5845 5844 5844 5843 5843 5843 5842 5842 5843 5843 5844 5845 5846 5846 5847 5848 5849 5850 5851 5853 5854 5855 5857 5858 5859 5861 5863 5866 5868 5870 5872
5859 5857 5855 5854 5852 5851 5849 5847 5845 5843 5841 5840 5838 5837 5836 5835 5835 5835 5835 5835 5835 5835 5836 5837 5838 5839 5840 5842 5843 5844 5845 5847 5848 5849 5852 5854 5855 5856 5858 5861 5863 5866 5868
5855 5854 5852 5850 5848 5846 5844 5841 5839 5837 5835 5833 5831 5829 5828 5827 5826 5826 5826 5827 5827 5827 5827 5828 5829 5830 5832 5833 5835 5836 5837 5839 5841 5843 5846 5848 5849 5850 5852 5855 5857 5860 5862
5851 5849 5847 5844 5842 5840 5837 5835 5833 5830 5828 5826 5824 5821 5820 5819 5817 5816 5817 5817 5817 5818 5819 5819 5819 5821 5822 5824 5826 5827 5829 5830 5833 5836 5838 5841 5842 5844 5846 5849 5852 5854 5857
5848 5846 5843 5840 5838 5835 5832 5830 5827 5824 5822 5819 5816 5814 5812 5810 5808 5807 5806 5806 5806 5806 5807 5808 5809 5810 5812 5814 5816 5818 5820 5822 5825 5828 5830 5833 5835 5836 5839 5842 5846 5848 5851
5846 5843 5839 5836 5833 5829 5826 5823 5819 5816 5813 5810 5807 5804 5802 5800 5798 5797 5796 5794 5794 5794 5795 5796 5798 5799 5801 5803 5805 5807 5810 5812 5815 5818 5821 5823 5827 5829 5832 5835 5838 5842 5844
5842 5838 5834 5830 5826 5822 5817 5813 5809 5805 5802 5798 5795 5793 5791 5789 5787 5786 5784 5783 5782 5781 5782 5783 5785 5787 5789 5792 5793 5796 5798 5801 5804 5807 5810 5813 5818 5821 5824 5827 5830 5834 5837
5835 5830 5825 5820 5815 5810 5805 5800 5795 5791 5787 5783 5780 5777 5775 5774 5773 5772 5770 5769 5769 5768 5768 5770 5771 5773 5775 5778 5781 5783 5786 5789 5793 5796 5799 5804 5808 5811 5814 5817 5821 5825 5829
5826 5821 5815 5809 5803 5797 5791 5785 5780 5775 5770 5765 5761 5758 5757 5755 5754 5753 5752 5752 5752 5752 5754 5755 5756 5758 5759 5762 5766 5769 5773 5777 5780 5784 5788 5793 5797 5801 5804 5807 5811 5816 5821
5818 5812 5805 5798 5791 5784 5778 5771 5764 5758 5752 5746 5741 5738 5736 5734 5732 5730 5730 5731 5732 5733 5736 5739 5740 5741 5743 5747 5751 5754 5758 5763 5767 5771 5775 5780 5785 5789 5793 5798 5801 5807 5811
5809 5801 5793 5785 5777 5769 5761 5753 5746 5738 5732 5725 5720 5715 5714 5711 5708 5707 5706 5707 5708 5711 5715 5718 5720 5722 5726 5730 5734 5738 5742 5748 5753 5757 5761 5767 5773 5777 5782 5788 5793 5798 5802
5798 5788 5779 5770 5761 5752 5743 5734 5725 5717 5709 5701 5695 5690 5688 5685 5682 5681 5680 5681 5683 5687 5691 5693 5697 5701 5706 5711 5715 5720 5726 5731 5736 5741 5746 5752 5759 5764 5770 5776 5782 5788 5793
5785 5775 5765 5754 5744 5734 5724 5713 5703 5693 5684 5676 5668 5663 5660 5657 5655 5653 5652 5653 5655 5660 5664 5667 5671 5677 5683 5689 5695 5701 5708 5714 5719 5724 5729 5735 5744 5751 5757 5763 5770 5776 5782
5771 5760 5748 5737 5725 5713 5701 5688 5676 5665 5655 5647 5640 5635 5632 5628 5626 5625 5625 5624 5626 5630 5634 5639 5644 5651 5658 5665 5673 5680 5687 5695 5702 5707 5711 5718 5727 5736 5743 5750 5757 5764 5770
5755 5743 5731 5718 5705 5692 5678 5664 5652 5640 5630 5623 5616 5612 5609 5606 5603 5602 5601 5600 5600 5601 5604 5610 5616 5624 5632 5639 5648 5656 5664 5673 5682 5690 5696 5703 5711 5721 5729 5736 5744 5751 5758
5740 5727 5714 5699 5685 5671 5656 5642 5630 5620 5611 5604 5599 5595 5591 5587 5584 5583 5581 5580 5579 5578 5579 5581 5587 5595 5604 5612 5622 5632 5641 5651 5661 5672 5681 5688 5696 5704 5714 5722 5730 5738 5745
5724 5709 5694 5679 5663 5649 5636 5624 5615 5605 5596 5589 5583 5578 5573 5568 5565 5563 5562 5561 5560 5559 5559 5558 5561 5567 5575 5584 5595 5607 5619 5630 5641 5651 5662 5672 5680 5689 5698 5707 5715 5723 5731
5708 5692 5676 5660 5644 5631 5619 5609 5600 5591 5581 5573 5565 5558 5553 5548 5544 5542 5541 5540 5540 5541 5540 5540 5541 5544 5549 5556 5568 5581 5594 5606 5618 5627 5639 5651 5662 5672 5681 5690 5700 5708 5717
5691 5675 5658 5642 5628 5615 5602 5591 5580 5571 5561 5553 5545 5538 5531 5526 5522 5519 5518 5517 5518 5520 5521 5522 5524 5526 5529 5533 5542 5554 5570 5585 5591 5607 5618 5629 5641 5652 5663 5674 5684 5693 5702
5675 5658 5641 5626 5612 5599 5586 5575 5564 5555 5546 5537 5530 5522 5514 5507 5502 5498 5496 5495 5495 5497 5500 5503 5506 5509 5513 5515 5519 5528 5543 5555 5570 5586 5597 5610 5620 5630 5643 5656 5667 5677 5686
5660 5642 5627 5612 5598 5584 5572 5561 5551 5542 5533 5525 5517 5509 5502 5494 5488 5483 5478 5475 5474 5475 5478 5482 5487 5491 5496 5499 5502 5506 5516 5529 5545 5562 5576 5588 5601 5614 5625 5638 5650 5661 5671
5645 5629 5614 5599 5586 5573 5562 5551 5541 5531 5521 5512 5504 5496 5489 5482 5475 5470 5465 5460 5457 5457 5458 5462 5467 5473 5478 5482 5486 5489 5495 5505 5519 5537 5554 5566 5579 5595 5608 5620 5633 5646 5656
5633 5618 5603 5590 5577 5564 5553 5542 5531 5521 5510 5500 5491 5483 5475 5468 5462 5456 5451 5447 5443 5441 5441 5443 5447 5453 5459 5464 5468 5472 5476 5483 5495 5511 5530 5545 5559 5576 5589 5603 5616 5630 5641